Location: Ladrillo (historical)
(32.8195°N, 117.2231°W)
Time: 16:38:17
(UTC+00:00)

Altair - Visible Passes

Search period start: 26 February 2021 00:00
Search period end: 08 March 2021 00:00
Orbit: 1501 x 1682 km, 47.2° (Epoch: 25 February)

Date Brightness Start Highest point End Pass type
(mag) Time Alt. Az. Time Alt. Az. Time Alt. Az.
26 Feb 7.4 03:09:15 10° SW 03:18:27 85° SE 03:25:09 22° NE visible
26 Feb 8.3 05:15:19 10° W 05:23:13 41° NNW 05:23:13 41° NNW visible
26 Feb 9.6 09:46:44 13° ESE 09:46:44 13° ESE 09:47:30 10° ESE visible
26 Feb 8.1 11:44:50 40° SSW 11:44:50 40° SSW 11:51:44 10° SSE visible
27 Feb 7.4 02:44:08 10° SW 02:53:18 79° SE 03:01:51 14° NE visible
27 Feb 8.2 04:49:57 10° W 04:58:42 43° NNW 04:59:54 42° N visible
27 Feb 9.6 06:57:13 10° WNW 06:57:58 12° NW 06:57:58 12° NW visible
27 Feb 8.6 11:21:55 31° S 11:21:55 31° S 11:26:44 10° SSE visible
28 Feb 7.5 02:19:02 10° SW 02:28:10 73° SE 02:37:32 10° NE visible
28 Feb 8.2 04:24:37 10° W 04:33:23 45° NNW 04:36:31 36° NNE visible
28 Feb 9.3 06:31:55 10° WNW 06:34:33 19° NW 06:34:33 19° NW visible
28 Feb 9.1 10:59:01 21° SSE 10:59:01 21° SSE 11:01:42 10° SSE visible
28 Feb 9.1 12:57:07 11° SW 12:57:07 11° SW 12:58:26 10° SW visible
01 Mar 7.5 01:53:59 10° SW 02:03:02 68° SE 02:12:18 10° ENE visible
01 Mar 8.1 03:59:17 10° W 04:08:07 48° NNW 04:13:02 27° NE visible
01 Mar 9.0 06:06:36 10° WNW 06:11:04 25° NW 06:11:04 25° NW visible
01 Mar 9.5 10:36:06 12° SSE 10:36:06 12° SSE 10:36:38 10° SSE visible
01 Mar 9.2 12:34:12 11° SW 12:34:12 11° SW 12:34:46 10° SSW visible
02 Mar 8.1 03:33:57 10° W 03:42:51 50° NNW 03:49:29 20° NE visible
02 Mar 8.7 05:41:17 10° WNW 05:47:32 31° NNW 05:47:32 31° NNW visible
03 Mar 8.0 03:08:40 10° WSW 03:17:35 53° NNW 03:25:53 13° NE visible
03 Mar 8.5 05:15:57 10° WNW 05:23:55 33° N 05:23:55 33° N visible
04 Mar 8.0 02:43:21 10° WSW 02:52:20 56° NNW 03:01:36 10° NE visible
04 Mar 8.5 04:50:37 10° WNW 04:58:52 34° N 05:00:16 32° NNE visible
04 Mar 9.5 06:56:47 10° NW 06:58:17 16° NW 06:58:17 16° NW visible
05 Mar 7.9 02:18:05 10° WSW 02:27:07 60° NNW 02:36:23 10° NE visible
05 Mar 8.5 04:25:16 10° WNW 04:33:30 34° N 04:36:33 28° NNE visible
05 Mar 9.2 06:31:35 10° NW 06:34:35 22° NW 06:34:35 22° NW visible
06 Mar 8.5 03:59:54 10° WNW 04:08:10 34° N 04:12:49 23° NE visible
06 Mar 8.9 06:06:23 10° NW 06:10:50 28° NNW 06:10:50 28° NNW visible
07 Mar 8.5 03:34:33 10° WNW 03:42:49 35° N 03:49:03 18° NE visible
07 Mar 8.6 05:41:10 10° NW 05:47:04 33° NNW 05:47:04 33° NNW visible
